Date,TemperatureHighF,TemperatureAvgF,TemperatureLowF,DewpointHighF,DewpointAvgF,DewpointLowF,HumidityHigh,HumidityAvg,HumidityLow,PressureMaxIn,PressureMinIn,WindSpeedMaxMPH,WindSpeedAvgMPH,GustSpeedMaxMPH,PrecipitationSumIn
2013-1-1,30,22,12,26,11,1,93,65,41,29.85,29.59,14,6,25,0.00
2013-1-2,22,10,-1,6,-1,-8,85,61,42,30.03,29.82,14,5,26,0.00
2013-1-3,23,12,-5,5,-1,-10,86,59,40,30.09,29.92,7,2,10,0.00
2013-1-4,34,17,-4,25,11,-8,87,78,64,29.92,29.69,7,1,12,0.00
2013-1-5,34,28,11,26,17,8,86,65,44,30.24,29.71,16,4,24,0.00
2013-1-6,36,22,9,24,18,6,89,82,61,30.21,29.88,6,0,11,0.00
2013-1-7,31,21,8,24,15,6,90,78,41,30.38,29.92,10,3,15,0.00
2013-1-8,42,25,6,26,19,3,93,79,50,30.34,30.17,8,2,13,0.00
2013-1-9,37,25,11,32,22,8,93,86,71,30.40,29.86,7,0,10,0.00
2013-1-10,43,38,29,33,27,21,90,64,50,30.50,29.88,18,7,30,0.01
2013-1-11,37,30,19,32,23,16,100,76,52,30.51,30.23,8,1,13,0.00
2013-1-12,42,37,34,41,36,32,99,94,90,30.24,30.08,1,0,4,0.06
2013-1-13,43,39,37,41,38,35,100,95,94,30.13,29.92,3,1,7,0.01
2013-1-14,58,45,37,52,38,24,96,79,40,30.19,29.82,7,2,12,0.02
2013-1-15,38,34,26,28,24,21,91,69,58,30.29,30.18,4,1,9,0.00
2013-1-16,31,30,28,29,26,21,94,87,68,30.25,29.76,6,2,10,0.00
2013-1-17,38,25,16,35,17,-1,95,75,42,30.11,29.75,12,3,19,0.21
2013-1-18,18,10,0,1,-3,-12,86,57,34,30.39,30.08,11,3,18,0.00
2013-1-19,37,25,0,28,18,-3,90,76,55,30.35,29.83,6,1,13,0.01
2013-1-20,47,37,24,35,26,9,90,65,35,29.83,29.41,16,6,27,0.03
2013-1-21,26,20,12,13,4,-2,67,50,31,30.02,29.82,9,3,13,0.00
2013-1-22,19,14,8,15,2,-12,92,62,38,30.01,29.76,9,4,13,0.00
2013-1-23,8,3,-1,-11,-15,-17,53,43,35,30.08,30.00,13,6,19,0.00
2013-1-24,12,4,-5,-7,-12,-16,65,48,31,30.12,29.92,15,6,19,0.00
2013-1-25,18,9,-3,6,-3,-8,82,59,38,30.20,30.05,10,2,15,0.00
2013-1-26,21,14,6,6,-2,-6,78,51,31,30.11,29.97,11,3,20,0.00
2013-1-27,26,16,8,4,-1,-6,65,47,31,30.41,30.11,10,3,20,0.00
2013-1-28,27,19,7,20,6,-7,92,62,26,30.42,30.06,5,1,10,0.00
2013-1-29,33,26,16,29,23,13,93,89,78,30.20,30.06,3,0,5,0.11
2013-1-30,52,42,31,50,41,29,95,94,93,30.13,29.40,4,1,8,0.28
2013-1-31,54,45,31,52,36,14,95,73,43,29.41,28.83,16,10,36,0.22
2013-2-1,31,25,16,17,8,2,59,48,38,30.01,29.41,14,7,36,0.00
2013-2-2,25,20,13,16,6,1,78,57,40,30.17,30.01,7,2,18,0.00
2013-2-3,28,24,20,17,15,13,82,68,55,30.04,29.67,9,4,13,0.00
2013-2-4,28,23,16,15,8,-3,76,55,35,29.85,29.62,17,6,23,0.00
2013-2-5,27,16,4,10,0,-5,82,52,26,30.01,29.84,6,1,9,0.00
2013-2-6,36,24,14,23,11,-5,78,61,32,30.27,29.89,13,3,18,0.00
2013-2-7,21,14,9,-3,-8,-12,57,37,23,30.56,30.27,9,3,15,0.00
2013-2-8,14,12,9,11,4,-11,92,73,34,30.57,29.88,17,9,26,0.00
2013-2-9,20,15,11,14,10,8,90,80,65,30.10,29.68,24,13,46,0.00
2013-2-10,37,22,9,14,5,0,85,52,22,30.33,30.09,7,2,46,0.00
2013-2-11,35,20,3,34,18,0,94,88,71,30.34,29.55,4,0,9,0.12
2013-2-12,44,36,28,37,30,27,95,82,63,29.75,29.51,12,4,20,0.19
2013-2-13,43,37,30,30,26,22,84,65,45,29.78,29.71,10,3,12,0.00
2013-2-14,41,33,24,26,22,19,88,66,42,29.98,29.68,7,2,15,0.00
2013-2-15,45,32,21,36,27,18,94,84,65,29.98,29.87,7,1,12,0.00
2013-2-16,35,32,28,33,29,14,100,88,56,29.93,29.74,10,3,16,0.01
2013-2-17,28,22,18,19,12,5,90,66,48,29.75,29.16,17,10,34,0.01
2013-2-18,29,21,14,9,4,-1,58,48,37,30.02,29.44,20,12,30,0.00
2013-2-19,44,31,14,42,15,-2,94,57,24,30.08,29.55,9,2,30,0.45
2013-2-20,44,35,28,42,27,17,94,74,56,29.62,29.40,13,7,21,0.08
2013-2-21,32,26,21,24,17,10,78,66,58,30.12,29.61,14,6,19,0.00
2013-2-22,39,32,26,24,22,20,84,67,49,30.37,30.12,12,3,17,0.00
2013-2-23,37,32,28,34,28,21,93,84,75,30.33,29.99,6,1,13,0.01
2013-2-24,32,30,28,31,29,27,100,94,93,30.00,29.76,8,5,12,0.00
2013-2-25,42,32,26,32,29,24,94,89,62,30.23,29.91,9,2,14,0.27
2013-2-26,42,35,29,36,30,27,100,84,65,30.34,30.23,3,0,6,0.00
2013-2-27,38,33,29,34,31,27,100,90,80,30.24,29.67,17,8,29,0.02
2013-2-28,41,37,32,39,35,30,94,94,92,29.67,29.52,11,5,24,0.40
2013-3-1,35,33,32,33,31,29,94,90,85,29.64,29.52,11,4,16,0.00
2013-3-2,41,35,31,33,31,30,94,88,65,29.63,29.58,6,2,12,0.04
2013-3-3,42,36,32,35,31,28,94,83,68,29.59,29.49,7,2,10,0.06
2013-3-4,34,32,30,30,27,24,90,79,71,29.68,29.48,10,6,18,0.00
2013-3-5,44,38,32,36,33,27,92,82,71,30.10,29.68,15,6,24,0.01
2013-3-6,38,35,32,33,30,27,93,83,71,30.24,30.10,18,10,28,0.02
2013-3-7,36,34,32,27,26,25,80,73,64,30.20,30.07,18,12,26,0.00
2013-3-8,46,37,30,28,24,20,90,62,38,30.19,30.03,18,13,27,0.00
2013-3-9,49,37,27,26,24,22,87,62,36,30.36,30.17,14,6,27,0.00
2013-3-10,42,32,21,31,27,19,100,81,61,30.41,30.28,6,1,16,0.00
2013-3-11,43,39,35,39,35,31,93,87,74,30.30,30.13,8,3,15,0.00
2013-3-12,51,46,41,49,44,39,94,93,90,30.14,29.71,10,4,21,0.93
2013-3-13,50,43,29,47,37,27,94,81,59,29.72,29.64,6,2,13,0.02
2013-3-14,40,30,22,33,22,8,100,74,49,29.73,29.58,9,3,18,0.00
2013-3-15,36,26,17,20,11,6,84,55,34,29.77,29.58,12,4,18,0.00
2013-3-16,36,29,22,21,14,9,89,55,34,29.87,29.60,10,4,16,0.00
2013-3-17,30,24,14,15,8,1,90,53,30,30.29,29.88,13,4,26,0.00
2013-3-18,37,24,9,22,8,0,85,54,21,30.42,30.26,8,2,26,0.00
2013-3-19,31,28,24,29,25,22,93,88,70,30.26,29.66,14,7,25,0.01
2013-3-20,36,29,21,28,23,19,93,80,57,29.70,29.58,11,4,25,0.11
2013-3-21,41,30,16,23,19,12,91,66,32,29.75,29.59,6,2,15,0.01
2013-3-22,39,31,19,21,18,15,92,62,40,29.63,29.56,11,3,18,0.00
2013-3-23,40,33,24,26,21,16,74,62,48,29.64,29.47,17,9,29,0.00
2013-3-24,46,37,28,27,25,24,87,63,45,29.76,29.62,9,4,19,0.00
2013-3-25,43,36,24,33,28,22,93,75,58,29.76,29.57,14,5,19,0.00
2013-3-26,49,40,31,28,26,23,79,59,40,29.71,29.55,10,4,19,0.00
2013-3-27,46,36,25,38,31,23,93,81,55,29.85,29.69,8,2,18,0.10
2013-3-28,51,41,31,37,34,28,93,77,47,29.95,29.85,7,2,11,0.01
2013-3-29,54,41,30,38,31,27,93,71,44,30.00,29.92,10,3,17,0.00
2013-3-30,55,40,27,35,24,14,93,60,21,30.07,29.95,9,2,14,0.00
2013-3-31,51,39,22,39,26,18,90,64,29,30.10,29.83,8,2,17,0.00
2013-4-1,53,42,34,44,38,21,93,85,60,29.82,29.46,11,4,16,0.49
2013-4-2,37,32,27,21,15,9,68,51,33,29.79,29.66,13,6,22,0.00
2013-4-3,41,35,29,20,14,9,61,43,28,30.04,29.78,18,9,30,0.00
2013-4-4,52,39,30,31,17,6,84,45,19,30.19,29.94,12,6,26,0.00
2013-4-5,57,42,31,34,28,22,83,58,31,29.94,29.61,9,4,18,0.00
2013-4-6,40,33,26,26,10,3,65,40,22,30.32,29.80,15,6,22,0.00
2013-4-7,46,36,23,39,27,13,86,69,39,30.32,29.92,10,4,22,0.00
2013-4-8,58,46,32,41,35,30,93,68,40,30.11,29.87,8,2,16,0.00
2013-4-9,46,41,35,43,39,31,94,91,84,30.10,29.88,5,1,9,0.24
2013-4-10,55,45,37,48,42,35,94,90,66,29.98,29.86,6,1,10,0.26
2013-4-11,52,45,38,43,29,16,94,58,28,30.18,29.85,11,4,17,0.05
2013-4-12,38,35,34,32,24,15,94,68,42,30.25,29.88,8,5,14,0.17
2013-4-13,46,38,33,40,35,31,94,89,72,29.89,29.78,7,2,11,0.14
2013-4-14,51,42,37,43,38,32,94,84,60,30.17,29.87,14,1,22,0.06
2013-4-15,54,42,28,41,35,26,94,78,51,30.40,30.17,7,2,14,0.00
2013-4-16,52,46,37,48,41,35,94,83,66,30.40,29.92,10,4,23,0.00
2013-4-17,60,52,35,51,34,24,90,53,28,30.33,29.92,11,4,21,0.00
2013-4-18,49,42,28,41,30,21,90,65,35,30.46,30.13,7,3,16,0.00
2013-4-19,66,55,47,58,51,40,93,87,76,30.13,29.59,9,5,22,0.00
2013-4-20,59,53,42,57,41,24,94,69,36,30.13,29.53,13,5,19,0.26
2013-4-21,51,41,29,26,22,15,80,48,24,30.69,30.13,10,4,18,0.00
2013-4-22,51,39,27,34,24,14,92,58,25,30.79,30.64,10,3,18,0.00
2013-4-23,46,38,28,40,35,26,93,88,76,30.65,30.18,10,5,14,0.00
2013-4-24,64,49,42,54,45,40,96,87,66,30.18,29.75,13,6,19,0.03
2013-4-25,62,52,38,50,37,24,93,61,26,30.27,29.75,12,4,18,0.04
2013-4-26,59,45,30,35,31,27,90,61,32,30.42,30.27,8,2,12,0.00
2013-4-27,62,46,30,42,35,28,93,68,34,30.40,30.28,7,2,11,0.00
2013-4-28,65,49,31,43,33,27,94,61,26,30.32,30.22,8,2,15,0.00
2013-4-29,62,49,32,47,39,30,92,71,41,30.26,30.19,8,2,15,0.00
2013-4-30,67,50,33,46,35,25,93,62,26,30.37,30.23,8,2,14,0.00
2013-5-1,69,51,30,39,33,23,93,57,20,30.44,30.36,8,2,14,0.00
2013-5-2,66,49,35,48,40,33,93,72,45,30.51,30.40,8,2,16,0.00
2013-5-3,69,49,31,47,40,29,93,74,45,30.54,30.35,8,2,13,0.00
2013-5-4,66,48,34,45,38,32,93,73,31,30.39,30.28,9,2,14,0.00
2013-5-5,62,46,30,41,36,28,93,72,43,30.33,30.24,8,2,15,0.00
2013-5-6,63,47,31,48,40,29,94,80,49,30.26,30.14,8,3,14,0.00
2013-5-7,71,55,45,55,49,43,94,81,45,30.17,30.07,8,3,16,0.00
2013-5-8,72,60,43,63,54,42,94,83,65,30.22,30.13,9,3,19,0.00
2013-5-9,61,56,53,59,54,51,94,93,92,30.08,29.88,4,1,9,0.59
2013-5-10,73,59,51,62,55,50,95,88,60,29.94,29.87,5,1,10,0.05
2013-5-11,62,56,52,60,54,50,94,93,91,29.90,29.66,5,2,11,0.34
2013-5-12,67,59,46,61,55,43,94,87,50,29.70,29.50,9,2,12,0.04
2013-5-13,56,49,39,43,33,28,93,58,35,29.99,29.70,12,5,21,0.00
2013-5-14,58,48,36,38,33,29,92,60,35,30.01,29.92,9,2,18,0.00
2013-5-15,61,48,30,49,36,23,93,70,26,30.00,29.64,10,3,18,0.12
2013-5-16,51,50,50,49,48,48,94,93,93,29.64,29.57,3,1,18,0.00
2013-5-17,50,48,44,44,43,41,88,83,79,30.18,30.16,0,0,0,0.00
2013-5-18,66,50,36,49,42,34,97,75,42,30.33,30.18,7,2,14,0.01
2013-5-19,66,52,43,53,47,41,93,84,56,30.37,30.21,5,2,10,0.06
2013-5-20,74,59,50,63,55,48,94,87,59,30.21,29.89,5,1,8,0.42
2013-5-21,57,53,49,55,51,47,93,93,92,30.11,29.94,7,2,11,0.19
2013-5-22,57,52,49,54,50,47,94,92,86,30.02,29.89,7,1,12,0.27
2013-5-23,62,56,49,60,54,47,94,92,88,29.93,29.78,5,1,11,0.07
2013-5-24,66,59,50,63,57,48,93,93,92,29.83,29.62,11,3,21,0.77
2013-5-25,50,48,46,48,46,44,94,93,91,29.82,29.64,16,9,24,0.25
2013-5-26,56,49,44,46,44,39,94,84,65,29.95,29.60,10,5,19,0.15
2013-5-27,68,51,37,43,38,32,93,67,28,30.10,29.95,8,2,19,0.00
2013-5-29,56,55,54,54,53,52,94,93,93,30.03,29.97,2,0,5,0.08
2013-5-30,85,69,54,68,60,53,94,77,43,30.01,29.91,8,2,14,0.00
2013-5-31,91,75,56,71,64,54,93,72,45,30.03,29.83,8,2,14,0.00
2013-6-1,92,76,60,72,65,58,93,72,42,29.88,29.75,6,1,14,0.00
2013-6-2,82,72,64,72,66,62,93,81,64,29.77,29.62,8,2,18,0.10
2013-6-3,77,67,58,68,63,56,93,88,70,29.78,29.66,6,1,12,0.01
2013-6-4,66,58,48,56,46,42,93,67,45,30.03,29.75,10,3,14,0.00
2013-6-5,72,58,43,49,44,36,93,65,30,30.15,30.03,7,1,13,0.00
2013-6-6,70,58,44,54,47,39,93,71,36,30.20,30.12,6,1,10,0.00
2013-6-7,60,55,52,53,50,44,93,84,56,30.13,29.93,6,2,10,0.39
2013-6-8,70,60,54,64,56,52,93,88,73,29.95,29.64,9,4,20,0.83
2013-6-9,72,64,57,63,59,55,93,84,66,30.13,29.95,5,1,20,0.00
2013-6-10,71,61,50,60,55,48,93,82,52,30.20,30.03,5,1,10,0.00
2013-6-11,57,56,55,54,54,53,93,93,92,30.03,29.52,11,3,16,0.60
2013-6-12,61,58,55,58,55,53,94,91,85,29.74,29.50,8,2,16,0.18
2013-6-13,70,58,47,57,51,46,94,80,45,29.78,29.70,6,1,16,0.00
2013-6-14,55,54,53,53,52,51,93,93,92,29.73,29.67,0,0,2,0.00
2013-6-15,59,54,51,49,48,47,88,79,67,29.87,29.84,0,0,3,0.00
2013-6-16,76,61,45,59,53,43,93,76,49,29.88,29.68,5,1,10,0.00
2013-6-17,80,65,51,65,58,49,93,82,48,29.84,29.69,9,1,16,0.20
2013-6-18,66,60,54,59,54,49,93,81,56,29.96,29.82,5,0,10,0.01
2013-6-19,74,62,50,54,49,43,93,66,34,30.12,29.90,7,1,17,0.00
2013-6-20,75,62,44,54,49,40,93,67,31,30.24,30.11,7,1,12,0.00
2013-6-21,80,64,48,60,54,46,93,73,39,30.21,30.13,7,1,14,0.00
2013-6-22,82,64,54,66,58,52,93,83,52,30.18,30.10,3,0,7,0.00
2013-6-23,79,71,66,71,67,64,93,88,73,30.10,29.92,4,1,8,0.16
2013-6-24,90,75,64,74,68,61,94,82,51,29.93,29.76,6,1,14,0.00
2013-6-25,88,75,65,74,68,63,92,79,55,29.82,29.65,10,1,13,0.32
2013-6-26,77,68,60,72,65,58,93,90,81,29.86,29.66,6,1,13,0.84
2013-6-27,67,60,57,64,58,55,93,92,87,29.87,29.80,6,1,9,0.15
2013-6-28,67,61,58,65,59,55,94,93,93,29.82,29.52,11,3,17,0.52
2013-6-29,73,67,63,70,64,61,94,93,87,29.66,29.52,6,1,16,0.01
2013-6-30,83,70,59,73,66,57,94,87,57,29.89,29.64,6,1,9,0.09
2013-7-1,76,70,64,71,68,62,93,91,84,30.06,29.89,2,0,9,0.05
2013-7-2,71,63,59,69,61,57,93,93,93,30.20,30.04,7,2,12,0.31
2013-7-3,82,67,60,74,64,58,94,90,76,30.18,30.05,5,1,10,0.03
2013-7-4,89,77,64,76,71,62,93,82,60,30.13,29.99,5,1,9,0.00
2013-7-5,92,80,67,77,71,65,93,77,53,30.08,29.93,6,2,14,0.00
2013-7-6,88,79,66,74,70,63,93,75,54,29.99,29.87,6,1,10,0.01
2013-7-7,87,75,62,74,67,59,92,76,51,29.93,29.85,7,1,10,0.00
2013-7-8,74,70,66,70,66,61,92,87,78,30.05,29.85,8,2,14,0.17
2013-7-9,73,67,63,68,64,61,93,90,82,30.10,30.04,4,1,10,0.12
2013-7-10,69,65,62,65,62,60,93,92,87,30.07,29.78,4,1,8,0.13
2013-7-11,82,74,69,72,69,63,94,86,67,29.94,29.74,3,0,7,0.01
2013-7-12,80,70,60,64,60,57,92,71,49,30.19,29.94,8,2,12,0.00
2013-7-13,82,69,55,66,60,53,93,75,51,30.28,30.19,4,1,9,0.00
2013-7-14,90,75,59,73,66,57,93,77,52,30.26,30.14,4,1,9,0.00
2013-7-15,93,79,63,74,68,60,93,71,45,30.15,30.02,5,1,11,0.00
2013-7-16,90,78,67,74,69,65,92,75,53,30.12,30.05,5,1,9,0.00
2013-7-17,86,75,64,74,69,61,92,82,66,30.14,29.92,8,1,25,0.82
2013-7-18,80,72,70,69,68,65,92,86,63,29.95,29.89,4,1,9,0.02
2013-7-19,93,80,70,78,72,67,92,78,53,29.91,29.59,11,3,21,0.00
2013-7-20,88,78,68,71,69,64,91,74,52,29.75,29.55,10,2,20,0.00
2013-7-21,76,68,58,64,60,56,93,76,54,29.99,29.75,6,1,14,0.00
2013-7-22,72,65,58,66,60,56,93,84,60,30.03,29.91,5,1,7,0.00
2013-7-23,69,64,59,66,62,57,93,92,91,29.91,29.51,4,1,8,0.94
2013-7-24,82,68,59,72,61,51,94,81,59,29.95,29.54,7,1,13,0.03
2013-7-25,72,63,52,62,55,49,91,76,60,30.10,29.95,7,2,13,0.00
2013-7-26,70,66,62,66,62,59,92,88,82,30.07,29.87,9,3,15,0.10
2013-7-27,82,71,59,69,63,57,93,78,55,29.99,29.89,5,1,12,0.01
2013-7-28,74,66,57,68,63,55,94,89,77,30.02,29.98,7,1,13,0.00
2013-7-29,76,68,62,70,64,60,93,90,78,30.02,29.95,4,1,9,0.17
2013-7-30,80,69,58,65,60,54,93,75,43,30.04,29.97,8,1,12,0.01
2013-7-31,80,66,53,62,58,51,93,76,49,30.10,30.00,5,1,10,0.00
2013-8-1,78,67,54,68,61,52,93,82,61,30.02,29.85,6,2,12,0.00
2013-8-2,77,66,60,68,63,58,93,90,71,29.85,29.71,8,1,12,0.85
2013-8-3,77,65,57,67,60,55,94,84,58,29.80,29.69,6,1,12,0.08
2013-8-4,77,64,52,62,57,50,93,79,50,29.81,29.70,11,1,21,0.00
2013-8-5,73,62,49,54,51,44,92,70,47,30.01,29.80,7,2,16,0.00
2013-8-6,76,61,44,58,51,42,94,73,47,30.13,30.00,5,1,12,0.00
2013-8-7,75,63,46,63,56,45,93,80,49,30.18,30.09,6,1,12,0.00
2013-8-8,76,66,60,70,63,58,93,90,83,30.09,29.97,4,1,10,0.19
2013-8-9,71,68,66,69,66,64,93,93,92,29.98,29.69,6,1,14,1.62
2013-8-10,79,70,59,68,58,48,94,70,35,29.96,29.71,7,1,10,0.01
2013-8-11,77,63,48,59,53,46,93,73,46,30.03,29.93,7,1,11,0.00
2013-8-12,76,61,54,62,56,52,93,85,57,29.97,29.86,5,0,12,0.00
2013-8-13,74,65,55,67,61,53,93,87,72,29.88,29.66,5,1,12,0.01
2013-8-14,76,67,57,66,59,49,93,76,47,29.85,29.58,8,2,15,0.00
2013-8-15,75,62,48,59,52,45,93,73,46,30.05,29.84,6,1,12,0.00
2013-8-16,77,62,49,61,54,47,93,77,48,30.15,30.04,5,1,10,0.00
2013-8-17,80,64,51,61,55,49,95,75,45,30.25,30.15,5,1,9,0.00
2013-8-18,76,63,48,64,57,46,94,81,56,30.25,30.02,4,0,8,0.00
2013-8-19,82,68,53,66,60,51,94,78,49,30.02,29.84,7,2,11,0.00
2013-8-20,84,70,58,68,62,55,95,77,48,30.04,29.91,6,1,11,0.00
2013-8-21,85,71,58,70,63,55,93,78,53,30.10,29.95,6,1,11,0.00
2013-8-22,87,72,57,70,64,55,93,77,47,29.95,29.71,6,1,10,0.00
2013-8-23,78,70,57,68,57,50,89,66,39,30.12,29.73,8,2,12,0.00
2013-8-24,78,62,46,60,50,44,93,69,35,30.29,30.11,5,1,9,0.00
2013-8-25,79,63,46,59,53,44,93,74,38,30.34,30.11,6,1,11,0.00
2013-8-26,78,67,57,70,63,55,92,88,73,30.11,29.83,5,1,8,0.14
2013-8-27,86,71,59,70,64,57,93,81,52,29.87,29.79,4,0,7,0.00
2013-8-28,82,70,62,71,65,60,93,84,64,29.97,29.83,6,1,9,0.16
2013-8-29,67,64,57,64,61,54,93,89,82,30.09,29.95,8,2,13,0.00
2013-8-30,79,66,54,69,61,52,93,85,69,30.00,29.75,6,1,9,0.00
2013-8-31,82,73,64,72,68,62,93,86,67,29.79,29.73,4,1,9,0.06
2013-9-1,82,74,69,73,69,66,93,86,68,29.88,29.72,4,0,9,0.03
2013-9-2,69,67,63,67,64,61,93,93,92,29.88,29.71,10,3,18,2.79
2013-9-3,77,70,66,71,67,64,93,90,79,29.74,29.66,4,1,18,0.01
2013-9-4,79,67,55,63,58,53,93,76,47,29.86,29.71,5,1,0,0.00
2013-9-5,66,59,48,59,52,44,92,78,46,30.11,29.83,4,1,1,0.35
2013-9-6,67,54,39,52,44,37,93,73,41,30.21,30.02,7,1,10,0.00
2013-9-7,76,59,44,61,52,43,93,80,49,30.02,29.76,7,1,11,0.01
2013-9-8,65,58,43,59,50,40,93,76,47,30.04,29.68,10,2,16,0.18
2013-9-9,66,52,36,54,45,34,93,78,49,30.19,30.04,8,1,12,0.00
2013-9-10,65,60,48,62,56,46,95,89,82,30.09,30.00,4,0,8,0.00
2013-9-11,90,74,63,79,69,61,93,83,58,30.02,29.83,7,1,13,0.28
2013-9-12,75,69,66,71,67,64,93,91,87,29.93,29.63,4,1,9,1.03
2013-9-13,67,64,58,65,62,55,93,93,92,29.69,29.56,8,1,17,0.84
2013-9-14,70,59,51,60,54,48,94,84,57,30.00,29.69,5,1,17,0.00
2013-9-15,66,54,42,56,49,40,93,83,59,30.11,29.98,6,1,9,0.00
2013-9-16,64,55,44,59,49,37,93,82,59,30.25,29.93,7,1,12,0.03
2013-9-17,67,50,34,50,41,32,99,75,44,30.40,30.25,7,1,13,0.00
2013-9-18,71,53,37,52,44,35,94,75,37,30.28,30.08,6,1,9,0.00
2013-9-19,74,57,40,56,48,38,93,77,46,30.11,29.99,4,1,10,0.00
2013-9-20,76,58,42,59,50,40,93,78,48,30.09,29.99,4,1,11,0.00
2013-9-21,65,60,51,62,57,49,93,91,84,30.01,29.73,6,2,17,0.01
2013-9-22,72,64,51,64,58,46,93,83,57,29.73,29.55,8,3,17,0.31
2013-9-23,56,51,45,46,42,40,91,74,62,29.92,29.73,7,2,12,0.00
2013-9-24,56,50,42,45,43,40,92,76,64,29.91,29.82,6,1,11,0.00
2013-9-25,62,54,41,51,46,39,93,77,58,29.96,29.85,9,1,10,0.00
2013-9-26,64,55,43,52,48,41,93,79,63,30.11,29.95,8,3,13,0.00
2013-9-27,71,60,50,57,52,47,93,78,54,30.23,30.11,6,2,7,0.00
2013-9-28,74,57,46,57,50,44,95,79,46,30.32,30.23,5,1,9,0.00
2013-9-29,66,52,43,55,46,41,94,82,50,30.25,30.11,4,1,7,0.01
2013-9-30,68,51,42,55,46,40,94,86,51,30.13,29.96,2,0,5,0.01
2013-10-1,77,56,39,60,49,37,94,80,42,29.96,29.79,7,1,8,0.00
2013-10-2,78,61,45,62,53,43,95,78,49,29.87,29.72,8,1,12,0.00
2013-10-3,75,58,42,57,48,41,96,74,39,30.04,29.87,6,1,11,0.00
2013-10-4,73,58,42,56,49,40,93,76,45,30.08,29.99,3,0,5,0.00
2013-10-5,62,56,46,51,46,43,92,70,54,30.13,30.05,4,1,7,0.00
2013-10-6,56,51,45,48,43,38,93,76,56,30.27,30.13,6,2,13,0.18
2013-10-7,68,59,50,65,57,47,93,93,92,30.19,29.77,9,3,14,0.64
2013-10-8,63,54,38,60,45,36,93,73,46,30.37,29.79,8,3,10,0.00
2013-10-9,64,46,32,47,38,30,94,78,46,30.48,30.36,4,1,7,0.00
2013-10-10,66,47,32,51,42,31,94,82,52,30.36,30.18,4,0,6,0.00
2013-10-11,69,54,42,59,48,40,94,83,56,30.18,30.11,4,0,6,0.00
2013-10-12,58,54,47,52,50,45,93,87,80,30.42,30.17,6,1,9,0.01
2013-10-13,57,51,42,50,47,40,93,87,73,30.45,30.37,3,0,8,0.00
2013-10-14,62,49,34,51,44,32,94,84,64,30.38,30.23,6,1,9,0.02
2013-10-15,66,57,50,55,52,48,93,83,64,30.27,30.18,6,1,7,0.00
2013-10-16,62,56,53,55,52,48,93,87,66,30.19,29.87,5,1,7,0.00
2013-10-17,56,55,54,53,52,52,92,91,91,29.87,29.81,4,1,9,0.00
2013-10-18,66,58,44,56,51,42,94,80,55,29.81,29.56,11,4,2,0.20
2013-10-19,64,50,35,51,44,33,94,80,49,29.91,29.72,6,1,12,0.00
2013-10-20,61,52,35,52,42,31,93,72,34,29.94,29.63,13,3,18,0.01
2013-10-21,61,44,30,47,38,28,93,80,46,30.07,29.93,6,1,10,0.00
2013-10-22,60,52,40,55,48,38,93,88,76,29.95,29.66,7,1,14,0.02
2013-10-23,53,43,32,44,37,30,94,82,56,29.75,29.56,6,1,10,0.00
2013-10-24,51,42,30,38,32,26,93,69,40,29.79,29.58,12,3,21,0.00
2013-10-25,44,34,28,36,30,26,93,88,66,29.95,29.80,8,1,13,0.00
2013-10-26,50,39,25,37,30,23,93,74,54,30.09,29.84,6,1,0,0.00
2013-10-27,55,46,35,41,36,28,92,70,45,29.99,29.75,10,3,18,0.01
2013-10-28,53,39,27,38,30,24,92,73,52,30.33,29.98,11,3,22,0.00
2013-10-29,49,33,21,30,23,17,92,71,30,30.44,30.33,6,1,11,0.00
2013-10-30,49,33,24,31,26,21,92,76,39,30.34,30.15,8,1,13,0.00
2013-10-31,58,40,25,55,37,23,93,91,83,30.24,29.75,6,1,12,0.21
2013-11-1,67,60,56,61,56,50,93,87,75,29.75,29.30,11,4,19,0.27
2013-11-2,64,51,36,50,44,35,94,79,50,29.75,29.53,12,2,16,0.03
2013-11-3,44,38,29,40,27,21,88,66,42,30.41,29.74,11,4,17,0.01
2013-11-4,42,31,23,22,20,18,89,65,38,30.70,30.41,10,2,15,0.00
2013-11-5,47,32,20,34,27,18,92,81,55,30.72,30.48,7,1,13,0.00
2013-11-6,54,42,28,48,38,26,93,87,72,30.49,29.96,7,2,13,0.00
2013-11-7,58,51,40,56,46,26,92,84,58,29.96,29.60,7,3,16,0.02
2013-11-8,46,39,29,28,26,24,87,61,47,29.97,29.74,13,5,21,0.00
2013-11-9,44,39,30,26,23,21,81,55,40,30.10,29.96,11,6,19,0.00
2013-11-10,41,35,32,38,33,30,93,91,85,30.02,29.69,2,0,14,0.02
2013-11-11,46,39,31,37,31,28,94,74,52,30.00,29.72,11,4,18,0.00
2013-11-12,41,33,29,33,22,16,87,63,51,30.09,29.80,11,5,19,0.00
2013-11-13,35,28,22,17,14,11,77,57,41,30.22,30.07,11,4,18,0.00
2013-11-14,48,34,23,28,23,16,90,65,43,30.08,29.96,8,1,18,0.00
2013-11-15,52,32,23,33,25,21,93,79,36,30.12,30.05,4,0,6,0.00
2013-11-16,58,38,30,36,30,27,93,78,35,30.33,30.17,1,0,3,0.00
2013-11-17,54,45,36,51,42,34,93,90,78,30.34,29.89,4,1,9,0.24
2013-11-18,62,54,42,56,48,37,93,82,50,29.89,29.43,12,4,19,0.39
2013-11-19,46,36,32,37,23,17,91,60,48,30.20,29.54,14,7,23,0.00
2013-11-20,41,31,21,19,16,12,86,55,32,30.61,30.20,8,3,21,0.00
2013-11-21,47,29,18,26,20,13,92,72,27,30.62,30.31,4,0,12,0.00
2013-11-22,37,33,26,35,30,22,93,88,80,30.31,29.75,1,0,2,0.01
2013-11-23,40,34,23,34,24,16,93,68,39,29.80,29.65,15,5,26,0.01
2013-11-24,27,22,19,24,8,3,91,54,42,29.99,29.65,18,12,32,0.00
2013-11-25,29,22,17,14,5,1,68,48,35,30.29,30.00,18,6,25,0.00
2013-11-26,33,30,27,30,25,13,93,81,51,30.29,30.14,4,1,14,0.03
2013-11-27,58,48,32,56,46,30,94,92,88,30.14,29.13,12,5,24,2.10
2013-11-28,39,30,20,36,17,6,89,61,39,30.38,29.25,17,7,27,0.00
2013-11-29,28,20,14,14,10,6,90,66,42,30.73,30.37,8,2,21,0.00
2013-11-30,30,20,9,22,13,6,91,74,41,30.80,30.41,5,1,11,0.00
2013-12-1,34,32,27,34,29,22,99,89,76,30.41,30.06,8,1,12,0.01
2013-12-2,35,35,34,34,33,32,100,93,93,30.06,29.90,10,3,16,0.00
2013-12-3,43,37,32,40,34,29,95,92,85,29.91,29.83,7,1,16,0.00
2013-12-4,42,34,26,30,27,24,93,77,60,30.21,29.86,9,3,12,0.00
2013-12-5,37,32,24,35,30,22,93,92,91,30.25,29.88,4,0,11,0.02
2013-12-6,44,39,34,42,36,29,94,90,73,30.09,29.83,4,0,8,0.15
2013-12-7,37,32,24,32,20,10,92,63,43,30.40,30.05,11,4,16,0.00
2013-12-8,29,25,21,19,12,8,81,58,42,30.56,30.39,11,3,19,0.00
2013-12-9,27,25,23,25,19,11,92,79,59,30.53,29.82,8,4,19,0.00
2013-12-10,33,25,14,31,23,12,93,92,91,29.89,29.70,3,0,10,0.01
2013-12-11,30,18,6,21,13,4,92,82,54,30.11,29.89,11,2,19,0.01
2013-12-12,19,12,3,14,3,-4,87,66,40,30.24,29.98,9,2,14,0.00
2013-12-13,23,11,-1,14,2,-6,91,67,46,30.38,29.88,13,3,20,0.00
2013-12-14,16,7,-3,7,-4,-9,87,59,35,30.61,30.38,8,2,16,0.00
2013-12-15,18,12,8,15,9,5,89,87,81,30.38,29.42,17,7,25,0.00
2013-12-16,24,10,-4,13,0,-8,91,66,36,30.20,29.64,14,4,25,0.00
2013-12-17,14,5,-13,9,-3,-17,88,71,50,30.31,30.03,6,1,10,0.00
2013-12-18,32,20,8,24,15,5,90,83,60,30.04,29.82,9,3,13,0.05
2013-12-19,32,19,8,26,16,5,100,88,76,30.08,29.90,5,0,13,0.01
2013-12-20,40,30,20,36,28,18,92,91,85,30.12,29.89,3,0,5,0.00
2013-12-21,35,33,29,34,31,28,99,93,92,29.94,29.81,6,1,9,0.00
2013-12-22,33,29,26,31,27,24,93,93,92,30.10,29.87,10,1,16,0.02
2013-12-23,34,30,27,32,28,25,93,93,93,30.12,29.95,0,0,15,0.00
2013-12-24,33,25,13,31,22,10,93,89,85,30.17,30.04,0,0,0,0.00
2013-12-25,21,11,5,16,7,2,100,84,79,30.54,30.17,0,0,0,0.00
2013-12-26,25,17,7,23,15,4,100,91,90,30.51,30.06,1,0,2,0.00
2013-12-27,32,18,5,29,16,2,93,91,87,30.19,30.11,0,0,1,0.01
2013-12-28,36,22,9,34,20,7,100,92,89,30.16,29.92,2,0,4,0.01
2013-12-29,34,25,15,32,24,13,93,93,91,30.02,29.53,8,1,15,0.00
2013-12-30,31,20,5,28,16,0,93,86,72,30.17,29.50,10,2,12,0.00
2013-12-31,11,2,-6,6,-2,-10,88,84,74,30.17,30.02,4,0,7,0.00
2014-1-1,22,2,-14,13,-2,-18,90,81,61,30.41,30.11,11,2,16,0.00
2014-1-2,8,-2,-6,2,-6,-10,92,80,72,30.44,30.00,13,8,20,0.00